Regional Weather Roundup
Issued by NWS

Home | Current Version | Previous Version | Graphics & Text | Print | Product List | Glossary On
Versions: 1 2 3 4 5 6 7 8 9 10 11 12 13 14 15 16 17 18 19 20 21 22 23 24 25 26 27 28 29 30 31 32 33 34 35 36 37 38 39 40 41 42 43 44 45 46 47 48 49 50
000
ASUS43 KFSD 192010
RWRSD

WEATHER ROUNDUP FOR SOUTH DAKOTA
NATIONAL WEATHER SERVICE SIOUX FALLS SD
200 PM CST FRI JAN 19 2018

NOTE: "FAIR" INDICATES FEW OR NO CLOUDS BELOW 12,000 FEET WITH NO
SIGNIFICANT WEATHER AND/OR OBSTRUCTIONS TO VISIBILITY.


SDZ001>005-009-010-012>017-192100-
NORTHWEST AND NORTH CENTRAL SOUTH DAKOTA

CITY           SKY/WX    TMP DP  RH WIND       PRES   REMARKS
BUFFALO          N/A     38  32  79 W9        29.62R
FAITH            N/A     39  33  79 W13       29.66R
MOBRIDGE       CLOUDY    43  32  65 NW13      29.60R
$$

SDZ012>016-024>037-041>051-057-063-072>074-192100-
SOUTHWEST AND SOUTH CENTRAL SOUTH DAKOTA

CITY           SKY/WX    TMP DP  RH WIND       PRES   REMARKS
RAPID CTY ARPT CLOUDY    43  31  62 N12       29.68F
PIERRE         CLOUDY    45  31  58 NW12      29.62R
CUSTER         CLOUDY    44  23  43 VRB6G17   29.66F
ELLSWORTH AFB  CLOUDY    42  32  67 N12       29.67S
PHILIP         CLOUDY    45  34  65 NW14      29.67S
SPEARFISH        N/A     43  30  61 CALM      29.68F
WINNER         FAIR      49  33  54 NW15      29.64R
$$

SDZ004>011-016>023-039-040-192100-
NORTHEAST SOUTH DAKOTA

CITY           SKY/WX    TMP DP  RH WIND       PRES   REMARKS
ABERDEEN       PTSUNNY   49  32  52 NW8       29.56S
WATERTOWN      CLOUDY    44  31  60 N10       29.51R
BROOKINGS      CLOUDY    44  33  65 W12       29.53R
SISSETON         N/A     50  29  44 NW16      29.50S
$$

SDZ017-020-022-023-036>040-048>070-192100-
SOUTHEAST SOUTH DAKOTA

CITY           SKY/WX    TMP DP  RH WIND       PRES   REMARKS
SIOUX FALLS    CLOUDY    50  36  58 W9        29.54S
HURON          CLOUDY    46  32  58 NW12      29.56S
CHAMBERLAIN    CLOUDY    45  34  66 W3        29.61R
MITCHELL       CLOUDY    46  35  65 NW12      29.57S
YANKTON        CLOUDY    59  31  34 W17       29.55S
$$

ABBREVIATIONS USED IN REMARKS
   TC - TEMPERATURE IN CELSIUS
  WCI - WIND CHILL INDEX
   HX - HEAT INDEX
  VSB - VISIBILITY





USA.gov is the U.S. government's official web portal to all federal, state and local government web resources and services.